Location: Cahas Mountain Overlook
(37.0833°N, 80.1000°W)
Time: 19:13:50
(UTC-04:00)

Explorer 7 - Pass Details

Date: 08 February 2026
Orbit: 430 x 541 km, 50.2° (Epoch: 13 March)

Event Time Altitude Azimuth Distance (km) Brightness Sun altitude
Rises 00:05:53 0° 314° (NW) 2,649 - -67.0°
Reaches altitude 10° 00:08:24 10° 329° (NNW) 1,777 - -67.2°
Maximum altitude 00:11:45 24° 24° (NNE) 1,138 - -67.3°
Drops below altitude 10° 00:15:08 10° 80° (E) 1,806 - -67.5°
Sets 00:17:43 0° 94° (E) 2,703 - -67.6°
